This demonstration page uses our WeatherBlox Daily Observations layout. Learn more.

Left ArrowRight Arrow

47.50024, -111.30081

Hourly Observations for May 16, 2019

Temp ( °F °C ) Dew Point ( °F °C ) Humidity (%) Winds ( mph kmh ) Pressure ( in mb ) Visibility ( mi km ) Precip ( " mm )
12:53 am 00:53 Cloudy with Light Rain 54 12.2 46 7.8 75 75 E 9 15 29.80 1009 10 16 0.00 0.03
1:53 am 01:53 Cloudy with Light Rain 52 11.1 50 10 93 93 NE 10 17 29.80 1009 10 16 0.02 0.51
2:53 am 02:53 Cloudy with Light Rain 51 10.6 49 9.4 92 92 ENE 13 20 29.80 1009 10 16 0.01 0.25
3:30 am 03:30 Cloudy with Light Rain 50 10 49 9.4 96 96 NE 14 22 29.83 1010 7 11 0.04 1.02
3:53 am 03:53 Cloudy with Light Rain 49 9.4 49 9.4 100 100 NE 18 30 29.81 1010 9 14 0.06 1.52
4:53 am 04:53 Cloudy 50 10 49 9.4 96 96 ENE 14 22 29.81 1010 10 16 0.01 0.25
5:16 am 05:16 Cloudy 49 9.4 49 9.4 100 100 ENE 16 26 29.84 1010 10 16 0.00 0.00
5:49 am 05:49 Cloudy 48 9 48 9 100 100 ENE 12 19 29.84 1011 10 16 0.00 0.00
5:53 am 05:53 Cloudy 48 8.9 48 8.9 100 100 ENE 12 19 29.82 1010 10 16 0.00 0.00
6:22 am 06:22 Cloudy 47 8.3 47 8.3 100 100 ENE 10 17 29.85 1011 9 14 0.00 0.00
6:39 am 06:39 Cloudy 47 8.3 47 8.3 100 100 ENE 10 17 29.84 1011 9 14 0.00 0.00
6:53 am 06:53 Cloudy 47 8.3 47 8.3 100 100 E 14 22 29.82 1010 10 16 0.00 0.00
7:03 am 07:03 Cloudy 48 8.9 47 8.3 96 96 ENE 10 17 29.83 1010 10 16 0.00 0.00
7:09 am 07:09 Cloudy 47 8.3 47 8.3 100 100 ENE 9 15 29.84 1011 10 16 0.00 0.00
7:22 am 07:22 Cloudy 47 8.3 47 8.3 100 100 E 9 15 29.85 1011 10 16 0.00 0.00
7:53 am 07:53 Cloudy 47 8.3 47 8.3 100 100 ENE 12 19 29.83 1010 10 16 0.00 0.00
8:30 am 08:30 Cloudy 48 8.9 46 7.8 93 93 E 14 22 29.84 1011 10 16 0.00 0.00
8:53 am 08:53 Cloudy 48 8.9 46 7.8 93 93 ESE 17 28 29.83 1010 10 16 0.00 0.00
9:53 am 09:53 Cloudy 50 10 47 8.3 89 89 E 13 20 29.81 1010 10 16 0.00 0.00
10:37 am 10:37 Cloudy 51 10.6 47 8.3 86 86 ESE 18 30 29.79 1009 10 16 0.00 0.00
10:53 am 10:53 Cloudy 53 11.7 47 8.3 80 80 E 18 30 29.80 1009 10 16 0.00 0.00
11:17 am 11:17 Cloudy 51 10.6 47 8.3 86 86 NE 13 20 29.79 1009 10 16 0.00 0.00
11:43 am 11:43 Cloudy 51 10.6 48 8.9 89 89 NE 9 15 29.79 1009 10 16 0.00 0.00
11:53 am 11:53 Cloudy 51 10.6 47 8.3 86 86 NNE 13 20 29.81 1009 10 16 0.00 0.00
12:16 pm 12:16 Cloudy 51 10.6 47 8.3 86 86 NE 14 22 29.78 1008 10 16 0.00 0.00
12:53 pm 12:53 Cloudy 52 11.1 47 8.3 83 83 NNE 15 24 29.79 1009 10 16 0.00 0.00
1:53 pm 13:53 Cloudy 54 12.2 47 8.3 77 77 NE 14 22 29.78 1008 10 16 0.00 0.00
2:53 pm 14:53 Cloudy 54 12.2 47 8.3 77 77 NE 16 26 29.77 1008 10 16 0.00 0.00
3:53 pm 15:53 Cloudy with Light Rain 53 11.7 47 8.3 80 80 E 15 24 29.76 1008 10 16 0.00 0.03
4:53 pm 16:53 Cloudy with Light Rain 50 10 48 8.9 93 93 NE 14 22 29.75 1007 10 16 0.00 0.03
5:53 pm 17:53 Cloudy 51 10.6 47 8.3 86 86 VRB 6 9 29.74 1007 10 16 0.00 0.03
6:53 pm 18:53 Cloudy 50 10 45 7.2 83 83 NE 12 19 29.75 1007 10 16 0.00 0.00
7:53 pm 19:53 Cloudy 49 9.4 44 6.7 83 83 SE 24 39 29.74 1007 10 16 0.00 0.00
8:33 pm 20:33 Cloudy 49 9.4 44 6.7 83 83 NE 13 20 29.72 1006 10 16 0.00 0.00
8:53 pm 20:53 Cloudy 49 9.4 43 6.1 80 80 E 18 30 29.76 1008 10 16 0.00 0.00
9:53 pm 21:53 Cloudy with Light Rain 47 8.3 45 7.2 93 93 ESE 20 31 29.77 1008 10 16 0.00 0.03
10:21 pm 22:21 Cloudy with Light Rain 47 8.3 45 7.2 93 93 E 17 28 29.74 1007 10 16 0.00 0.03
10:38 pm 22:38 Cloudy with Light Rain 46 7.8 45 7.2 96 96 E 18 30 29.73 1007 10 16 0.00 0.03
10:53 pm 22:53 Cloudy with Light Rain 46 7.8 45 7.2 96 96 E 23 37 29.73 1007 8 13 0.01 0.25
11:28 pm 23:28 Cloudy with Light Rain 47 8.3 45 7.2 93 93 E 13 20 29.72 1006 10 16 0.01 0.25
11:53 pm 23:53 Cloudy with Light Rain 46 7.8 45 7.2 96 96 E 16 26 29.75 1008 10 16 0.02 0.51

Powered by AerisWeather